Location: Borz?cin
(51.1714°N, 19.6030°E)
Time: 06:50:15
(UTC+00:00)

NOSS 3-1 (A) - Pass Details

Date: 19 May 2025
Orbit: 667 x 1541 km, 63.4° (Epoch: 12 June)

Event Time Altitude Azimuth Distance (km) Brightness Sun altitude
Exits shadow 20:49:58 11° 203° (SSW) 2,155 5.0 -15.0°
Maximum altitude 20:54:42 57° 126° (SE) 929 3.1 -15.3°
Drops below altitude 10° 21:00:30 10° 49° (NE) 2,620 6.0 -15.7°
Sets 21:03:21 0° 46° (NE) 3,706 6.8 -15.9°
